Regional Weather Roundup
Issued by NWS

Home | Current Version | Previous Version | Graphics & Text | Print | Product List | Glossary On
Versions: 1 2 3 4 5 6 7 8 9 10 11 12 13 14 15 16 17 18 19 20 21 22 23 24 25 26 27 28
000
ASUS45 KCYS 281310
RWRWY

WYOMING REGIONAL WEATHER ROUNDUP
NATIONAL WEATHER SERVICE CHEYENNE WY
700 AM MDT THU APR 28 2016

NOTE:  "FAIR" INDICATES FEW OR NO CLOUDS BELOW 12,000 FEET
WITH NO SIGNIFICANT WEATHER AND/OR OBSTRUCTIONS TO VISIBILITY.

WYZ001-281400-
YELLOWSTONE NATIONAL PARK

CITY           SKY/WX    TMP DP  RH WIND       PRES   REMARKS
LK YELLOWSTONE   N/A     28  21  75 VRB5      29.89S WCI  23
W YELLOWSTONE  NOT AVBL

$$
WYZ002>013-054>058-071-098>099-281400-
NORTHERN WYOMING

CITY           SKY/WX    TMP DP  RH WIND       PRES   REMARKS
JACKSON        PTCLDY    36  28  75 N7        29.84S WCI  30
CODY           CLOUDY    30  27  86 N8        29.98R WCI  23
GREYBULL       CLOUDY    35  30  82 N9        29.98R WCI  28
WORLAND        CLOUDY    34  31  88 NW6       29.98R WCI  29
SHERIDAN       CLOUDY    32  31  96 CALM      30.03S
BUFFALO        CLOUDY    30  27  88 N6        30.00R WCI  24
GILLETTE       CLOUDY    30  29  96 N7        30.00R WCI  23
HULETT         MIX PCPN  32  32 100 N7        30.01R WCI  26
NEWCASTLE      CLOUDY    32  28  86 NW8       29.98R WCI  25

$$
WYZ014>020-022>026-101>103-281400-
CENTRAL WYOMING

CITY           SKY/WX    TMP DP  RH WIND       PRES   REMARKS
BIG PINEY      CLOUDY    31  27  85 SW8       29.86R WCI  23
PINEDALE       PTSUNNY   32  30  93 NW6       29.85S WCI  26
DUBOIS         CLOUDY    28  28 100 SE10G18   29.87S FOG     WCI  19
LANDER         CLOUDY    32  31  96 N3        29.92R
RIVERTON       CLOUDY    33  28  81 NE9       29.94R WCI  25
CASPER         CLOUDY    31  27  85 N10       29.96R WCI  22
DOUGLAS        CLOUDY    32  29  88 N7        29.98R WCI  26

$$
WYZ021-027>030-104>119-281400-
SOUTHERN WYOMING

CITY           SKY/WX    TMP DP  RH WIND       PRES   REMARKS
EVANSTON       CLOUDY    32  26  78 E17G24    29.78R WCI  21
FORT BRIDGER   CLOUDY    32  32 100 E13       29.84R WCI  22
ROCK SPRINGS   FAIR      30  25  81 NE17      29.84S WCI  18
DIXON          FAIR      33  26  77 E6        29.81F WCI  27
RAWLINS        CLOUDY    29  24  82 NE10      29.89R WCI  20
SARATOGA       CLOUDY    30  30 100 CALM      29.87S
LARAMIE        CLOUDY    27  23  85 NE7       29.89R WCI  19
CHEYENNE       CLOUDY    31  27  85 NE7       29.92S WCI  24
TORRINGTON     FAIR      33  28  81 NE8       29.98R WCI  26
PINE BLUFFS    CLOUDY    32  32 100 N10       29.95R WCI  24

$$




USA.gov is the U.S. government's official web portal to all federal, state and local government web resources and services.